^^
Saratoga-Weather Station Historical Data
Daily Summary for October 5, 2020 Units:  Metric    English   Both
Daily Weekly Monthly Yearly Custom
  High: Low: Average:
Temperature: 12.1 °C 9.6 °C 10.8 °C
Dew Point: 11.3 °C 8.3 °C 9.7 °C
Humidity: 95% 88% 93%
Wind Speed: 14.5km/h 0km/h 3.3km/h
Wind Gust: 19.3km/h - -
Wind- - SSE
Pressure: 1003.7 hPa 999.3 hPa -
Precipitation: 24.9 mm    
Historical Graphs
 
 
Tabular Data for October 5, 2020
Time Temperature Dew Point Pressure Wind Wind Speed Wind Gust Humidity Rainfall Rate (Hourly) solar
00:02 9.6 °C 8.7 °C 999.3 hPa East 4.7 km/h 8 km/h 94% 0.0 mm 0 W/m2
00:07 9.6 °C 8.7 °C 999.3 hPa ENE 3.2 km/h 9.7 km/h 94% 0.0 mm 0 W/m2
00:12 9.7 °C 8.8 °C 999.3 hPa East 3.2 km/h 3.2 km/h 94% 0.0 mm 0 W/m2
00:17 9.7 °C 8.8 °C 999.3 hPa ENE 3.2 km/h 6.4 km/h 94% 0.0 mm 0 W/m2
00:22 9.7 °C 8.6 °C 999.3 hPa NE 1.4 km/h 4.8 km/h 93% 0.0 mm 0 W/m2
00:27 9.7 °C 8.6 °C 999.3 hPa North 3.2 km/h 3.2 km/h 93% 0.0 mm 0 W/m2
00:32 9.8 °C 8.7 °C 999.3 hPa East 4.7 km/h 9.7 km/h 93% 0.0 mm 0 W/m2
00:37 9.8 °C 8.7 °C 999.3 hPa East 3.2 km/h 8 km/h 93% 0.0 mm 0 W/m2
00:42 9.9 °C 8.7 °C 999.3 hPa NNW 4.7 km/h 4.8 km/h 92% 0.0 mm 0 W/m2
00:47 9.9 °C 8.7 °C 999.3 hPa ENE 3.2 km/h 8 km/h 92% 0.0 mm 0 W/m2
00:52 9.9 °C 8.7 °C 999.3 hPa NNE 1.4 km/h 3.2 km/h 92% 0.0 mm 0 W/m2
00:57 9.9 °C 8.5 °C 999.3 hPa North 3.2 km/h 6.4 km/h 91% 0.0 mm 0 W/m2
01:02 9.9 °C 8.5 °C 999.3 hPa North 1.4 km/h 3.2 km/h 91% 0.0 mm 0 W/m2
01:07 9.9 °C 8.5 °C 999.3 hPa North 1.4 km/h 3.2 km/h 91% 0.0 mm 0 W/m2
01:12 9.9 °C 8.5 °C 999.3 hPa NNW 1.4 km/h 3.2 km/h 91% 0.0 mm 0 W/m2
01:17 9.9 °C 8.5 °C 999.3 hPa ENE 1.4 km/h 3.2 km/h 91% 0.0 mm 0 W/m2
01:23 9.8 °C 8.4 °C 999.3 hPa ENE 1.4 km/h 4.8 km/h 91% 0.0 mm 0 W/m2
01:28 9.8 °C 8.4 °C 999.3 hPa North 3.2 km/h 4.8 km/h 91% 0.0 mm 0 W/m2
01:33 9.8 °C 8.4 °C 999.3 hPa East 3.2 km/h 4.8 km/h 91% 0.0 mm 0 W/m2
01:38 9.7 °C 8.3 °C 999.7 hPa Calm   4.8 km/h 91% 0.0 mm 0 W/m2
01:43 9.7 °C 8.3 °C 999.7 hPa Calm   3.2 km/h 91% 0.0 mm 0 W/m2
01:48 9.7 °C 8.5 °C 999.7 hPa Calm   4.8 km/h 92% 0.0 mm 0 W/m2
01:53 9.7 °C 8.5 °C 999.7 hPa East 4.7 km/h 6.4 km/h 92% 0.0 mm 0 W/m2
01:58 9.7 °C 8.5 °C 999.7 hPa ENE 1.4 km/h 6.4 km/h 92% 0.0 mm 0 W/m2
02:03 9.7 °C 8.5 °C 999.7 hPa ENE 3.2 km/h 4.8 km/h 92% 0.0 mm 0 W/m2
02:08 9.8 °C 8.6 °C 999.7 hPa Calm   8 km/h 92% 0.0 mm 0 W/m2
02:13 9.8 °C 8.6 °C 999.7 hPa NE 1.4 km/h 6.4 km/h 92% 0.0 mm 0 W/m2
02:18 9.9 °C 8.7 °C 999.7 hPa NE 6.4 km/h 8 km/h 92% 0.0 mm 0 W/m2
02:23 10 °C 8.6 °C 999.7 hPa ENE 4.7 km/h 6.4 km/h 91% 0.0 mm 0 W/m2
02:28 10.1 °C 8.7 °C 999.7 hPa ENE 4.7 km/h 4.8 km/h 91% 0.0 mm 0 W/m2
02:33 10.1 °C 8.7 °C 999.7 hPa ENE 1.4 km/h 6.4 km/h 91% 0.0 mm 0 W/m2
02:38 10.1 °C 8.7 °C 999.7 hPa NE 4.7 km/h 9.7 km/h 91% 0.0 mm 0 W/m2
02:43 10.1 °C 8.7 °C 999.7 hPa ENE 3.2 km/h 6.4 km/h 91% 0.0 mm 0 W/m2
02:48 10.1 °C 8.7 °C 999.7 hPa Calm   9.7 km/h 91% 0.0 mm 0 W/m2
02:53 10.1 °C 8.9 °C 999.7 hPa ENE 6.4 km/h 11.3 km/h 92% 0.0 mm 0 W/m2
02:58 10.2 °C 8.8 °C 999.7 hPa ENE 9.7 km/h 9.7 km/h 91% 0.0 mm 0 W/m2
03:03 10.2 °C 8.8 °C 999.7 hPa ENE 4.7 km/h 6.4 km/h 91% 0.0 mm 0 W/m2
03:08 10.2 °C 8.8 °C 1000.0 hPa NNE 1.4 km/h 4.8 km/h 91% 0.0 mm 0 W/m2
03:13 10.2 °C 8.8 °C 999.7 hPa NE 1.4 km/h 8 km/h 91% 0.0 mm 0 W/m2
03:18 10.3 °C 8.9 °C 999.7 hPa NNE 1.4 km/h 3.2 km/h 91% 0.0 mm 0 W/m2
03:23 10.3 °C 8.9 °C 999.7 hPa East 4.7 km/h 8 km/h 91% 0.0 mm 0 W/m2
03:28 10.3 °C 8.9 °C 999.7 hPa Calm   6.4 km/h 91% 0.0 mm 0 W/m2
03:33 10.4 °C 8.8 °C 1000.0 hPa NE 1.4 km/h 4.8 km/h 90% 0.0 mm 0 W/m2
03:38 10.4 °C 8.8 °C 999.7 hPa ENE 4.7 km/h 9.7 km/h 90% 0.0 mm 0 W/m2
03:43 10.5 °C 8.9 °C 999.7 hPa Calm   3.2 km/h 90% 0.0 mm 0 W/m2
03:48 10.5 °C 8.9 °C 999.7 hPa ENE 3.2 km/h 8 km/h 90% 0.0 mm 0 W/m2
03:53 10.6 °C 9 °C 1000.0 hPa NNE 3.2 km/h 6.4 km/h 90% 0.0 mm 0 W/m2
03:58 10.6 °C 8.9 °C 999.7 hPa NE 3.2 km/h 6.4 km/h 89% 0.0 mm 0 W/m2
04:03 10.6 °C 8.9 °C 999.7 hPa NNE 6.4 km/h 8 km/h 89% 0.0 mm 0 W/m2
04:08 10.6 °C 8.9 °C 999.7 hPa NNW 3.2 km/h 4.8 km/h 89% 0.0 mm 0 W/m2
04:13 10.6 °C 8.9 °C 999.7 hPa NW 1.4 km/h 8 km/h 89% 0.0 mm 0 W/m2
04:18 10.6 °C 8.9 °C 999.7 hPa ENE 3.2 km/h 3.2 km/h 89% 0.0 mm 0 W/m2
04:23 10.6 °C 8.9 °C 999.7 hPa NNE 4.7 km/h 6.4 km/h 89% 0.0 mm 0 W/m2
04:29 10.6 °C 8.9 °C 999.7 hPa NE 1.4 km/h 4.8 km/h 89% 0.0 mm 0 W/m2
04:34 10.6 °C 8.9 °C 999.7 hPa ENE 6.4 km/h 8 km/h 89% 0.0 mm 0 W/m2
04:39 10.6 °C 8.7 °C 999.7 hPa ENE 6.4 km/h 6.4 km/h 88% 0.0 mm 0 W/m2
04:44 10.5 °C 8.6 °C 999.7 hPa North 1.4 km/h 8 km/h 88% 0.0 mm 0 W/m2
04:49 10.5 °C 8.6 °C 999.7 hPa NE 3.2 km/h 4.8 km/h 88% 0.0 mm 0 W/m2
04:54 10.4 °C 8.5 °C 999.7 hPa NE 3.2 km/h 6.4 km/h 88% 0.0 mm 0 W/m2
04:59 10.4 °C 8.5 °C 999.7 hPa NE 3.2 km/h 4.8 km/h 88% 0.0 mm 0 W/m2
05:04 10.3 °C 8.4 °C 999.7 hPa NE 3.2 km/h 3.2 km/h 88% 0.0 mm 0 W/m2
05:09 10.3 °C 8.4 °C 999.7 hPa NNE 3.2 km/h 6.4 km/h 88% 0.0 mm 0 W/m2
05:14 10.3 °C 8.4 °C 999.7 hPa Calm   6.4 km/h 88% 0.0 mm 0 W/m2
05:19 10.3 °C 8.4 °C 1000.0 hPa NE 3.2 km/h 3.2 km/h 88% 0.0 mm 0 W/m2
05:24 10.4 °C 8.5 °C 1000.0 hPa East 4.7 km/h 4.8 km/h 88% 0.0 mm 0 W/m2
05:29 10.3 °C 8.4 °C 1000.0 hPa ENE 3.2 km/h 8 km/h 88% 0.0 mm 0 W/m2
05:34 10.3 °C 8.4 °C 1000.0 hPa SW 1.4 km/h 8 km/h 88% 0.0 mm 0 W/m2
05:39 10.3 °C 8.4 °C 1000.0 hPa ENE 1.4 km/h 3.2 km/h 88% 0.0 mm 0 W/m2
05:44 10.3 °C 8.4 °C 1000.0 hPa East 6.4 km/h 6.4 km/h 88% 0.0 mm 0 W/m2
05:49 10.3 °C 8.4 °C 1000.0 hPa SSE 1.4 km/h 6.4 km/h 88% 0.0 mm 0 W/m2
05:54 10.3 °C 8.6 °C 1000.0 hPa East 4.7 km/h 9.7 km/h 89% 0.0 mm 0 W/m2
05:59 10.3 °C 8.6 °C 1000.0 hPa NE 6.4 km/h 11.3 km/h 89% 0.0 mm 0 W/m2
06:04 10.2 °C 8.5 °C 1000.0 hPa East 1.4 km/h 8 km/h 89% 0.0 mm 0 W/m2
06:09 10.2 °C 8.5 °C 1000.0 hPa NE 4.7 km/h 9.7 km/h 89% 0.0 mm 0 W/m2
06:14 10.2 °C 8.5 °C 1000.0 hPa ENE 6.4 km/h 6.4 km/h 89% 0.0 mm 0 W/m2
06:19 10.2 °C 8.5 °C 1000.0 hPa ESE 1.4 km/h 6.4 km/h 89% 0.0 mm 0 W/m2
06:24 10.2 °C 8.5 °C 1000.0 hPa ENE 3.2 km/h 6.4 km/h 89% 0.0 mm 0 W/m2
06:29 10.2 °C 8.5 °C 1000.0 hPa ENE 1.4 km/h 6.4 km/h 89% 0.0 mm 0 W/m2
06:34 10.2 °C 8.5 °C 1000.0 hPa NE 3.2 km/h 11.3 km/h 89% 0.0 mm 0 W/m2
06:39 10.2 °C 8.5 °C 1000.0 hPa East 11.1 km/h 11.3 km/h 89% 0.0 mm 0 W/m2
06:44 10.3 °C 8.4 °C 1000.0 hPa NE 4.7 km/h 9.7 km/h 88% 0.0 mm 0 W/m2
06:49 10.3 °C 8.4 °C 1000.0 hPa NE 4.7 km/h 14.5 km/h 88% 0.0 mm 0 W/m2
06:54 10.3 °C 8.4 °C 1000.0 hPa ENE 3.2 km/h 6.4 km/h 88% 0.0 mm 0 W/m2
06:59 10.2 °C 8.5 °C 1000.0 hPa East 4.7 km/h 14.5 km/h 89% 0.0 mm 0 W/m2
07:04 10.1 °C 8.4 °C 1000.0 hPa NE 7.9 km/h 11.3 km/h 89% 0.0 mm 0 W/m2
07:09 10.1 °C 8.4 °C 1000.0 hPa North 3.2 km/h 11.3 km/h 89% 0.0 mm 0 W/m2
07:14 10.1 °C 8.4 °C 1000.0 hPa ESE 3.2 km/h 8 km/h 89% 0.0 mm 0 W/m2
07:19 10.1 °C 8.4 °C 1000.0 hPa NE 7.9 km/h 8 km/h 89% 0.0 mm 0 W/m2
07:24 10.1 °C 8.4 °C 1000.0 hPa Calm   6.4 km/h 89% 0.0 mm 0 W/m2
07:29 10.1 °C 8.4 °C 1000.0 hPa East 6.4 km/h 9.7 km/h 89% 0.2 mm 0 W/m2
07:34 10.1 °C 8.5 °C 1000.0 hPa ENE 3.2 km/h 8 km/h 90% 0.2 mm 0 W/m2
07:39 10.1 °C 8.5 °C 1000.0 hPa NE 3.2 km/h 4.8 km/h 90% 0.2 mm 0 W/m2
07:44 10.1 °C 8.5 °C 1000.0 hPa ENE 7.9 km/h 12.9 km/h 90% 0.2 mm 0 W/m2
07:49 10.1 °C 8.5 °C 1000.0 hPa ENE 6.4 km/h 9.7 km/h 90% 0.2 mm 0 W/m2
07:54 10.1 °C 8.5 °C 1000.3 hPa ENE 3.2 km/h 9.7 km/h 90% 0.2 mm 0 W/m2
07:59 10.1 °C 8.5 °C 1000.0 hPa SE 1.4 km/h 9.7 km/h 90% 0.2 mm 0 W/m2
08:04 10.1 °C 8.5 °C 1000.3 hPa NNE 3.2 km/h 6.4 km/h 90% 0.2 mm 5 W/m2
08:09 10 °C 8.4 °C 1000.3 hPa East 4.7 km/h 11.3 km/h 90% 0.5 mm 7 W/m2
08:14 9.9 °C 8.3 °C 1000.3 hPa NNW 4.7 km/h 6.4 km/h 90% 0.5 mm 7 W/m2
08:19 9.9 °C 8.5 °C 1000.3 hPa NNE 1.4 km/h 4.8 km/h 91% 0.5 mm 9 W/m2
08:24 9.9 °C 8.5 °C 1000.3 hPa ENE 1.4 km/h 3.2 km/h 91% 0.5 mm 9 W/m2
08:29 9.9 °C 8.5 °C 1000.3 hPa East 3.2 km/h 6.4 km/h 91% 0.5 mm 16 W/m2
08:35 9.8 °C 8.4 °C 1000.3 hPa NNE 3.2 km/h 6.4 km/h 91% 0.5 mm 26 W/m2
08:40 9.8 °C 8.4 °C 1000.3 hPa ENE 3.2 km/h 9.7 km/h 91% 0.5 mm 30 W/m2
08:45 9.8 °C 8.4 °C 1000.3 hPa ENE 4.7 km/h 9.7 km/h 91% 0.5 mm 18 W/m2
08:50 9.8 °C 8.4 °C 1000.3 hPa North 3.2 km/h 6.4 km/h 91% 0.5 mm 11 W/m2
08:55 9.9 °C 8.5 °C 1000.3 hPa NW 4.7 km/h 12.9 km/h 91% 0.5 mm 5 W/m2
09:00 9.9 °C 8.5 °C 1000.3 hPa ENE 3.2 km/h 6.4 km/h 91% 0.5 mm 7 W/m2
09:05 9.9 °C 8.5 °C 1000.3 hPa NE 3.2 km/h 6.4 km/h 91% 0.5 mm 9 W/m2
09:10 9.9 °C 8.5 °C 1000.3 hPa NE 1.4 km/h 4.8 km/h 91% 0.5 mm 33 W/m2
09:15 9.9 °C 8.5 °C 1000.3 hPa Calm   4.8 km/h 91% 0.5 mm 33 W/m2
09:20 9.9 °C 8.5 °C 1000.3 hPa NE 3.2 km/h 6.4 km/h 91% 0.5 mm 25 W/m2
09:25 9.9 °C 8.5 °C 1000.3 hPa ENE 4.7 km/h 11.3 km/h 91% 0.2 mm 30 W/m2
09:30 9.9 °C 8.5 °C 1000.3 hPa NE 3.2 km/h 4.8 km/h 91% 0.5 mm 26 W/m2
09:35 9.9 °C 8.5 °C 1000.7 hPa ENE 3.2 km/h 6.4 km/h 91% 0.5 mm 28 W/m2
09:40 9.9 °C 8.7 °C 1000.3 hPa ENE 3.2 km/h 6.4 km/h 92% 0.5 mm 37 W/m2
09:45 9.9 °C 8.7 °C 1000.3 hPa ENE 3.2 km/h 9.7 km/h 92% 0.5 mm 46 W/m2
09:50 9.9 °C 8.7 °C 1000.7 hPa NW 4.7 km/h 4.8 km/h 92% 0.8 mm 60 W/m2
09:55 9.9 °C 8.7 °C 1000.7 hPa NE 1.4 km/h 9.7 km/h 92% 0.8 mm 54 W/m2
10:00 9.9 °C 8.8 °C 1000.7 hPa NW 3.2 km/h 4.8 km/h 93% 1.0 mm 37 W/m2
10:05 9.8 °C 8.7 °C 1000.7 hPa NW 4.7 km/h 8 km/h 93% 1.3 mm 46 W/m2
10:10 9.8 °C 8.7 °C 1000.7 hPa North 3.2 km/h 11.3 km/h 93% 1.5 mm 39 W/m2
10:15 9.8 °C 8.9 °C 1000.7 hPa North 3.2 km/h 9.7 km/h 94% 1.5 mm 67 W/m2
10:20 9.8 °C 8.9 °C 1000.7 hPa ENE 4.7 km/h 12.9 km/h 94% 1.5 mm 60 W/m2
10:25 9.8 °C 8.9 °C 1001.0 hPa NNW 6.4 km/h 19.3 km/h 94% 1.8 mm 37 W/m2
10:30 9.9 °C 8.8 °C 1000.7 hPa NW 3.2 km/h 3.2 km/h 93% 1.8 mm 74 W/m2
10:35 9.9 °C 9 °C 1000.7 hPa NW 3.2 km/h 19.3 km/h 94% 1.8 mm 56 W/m2
10:40 10 °C 8.9 °C 1000.7 hPa WNW 4.7 km/h 12.9 km/h 93% 1.8 mm 44 W/m2
10:45 10.1 °C 9 °C 1000.7 hPa NNW 6.4 km/h 6.4 km/h 93% 1.8 mm 79 W/m2
10:50 10.1 °C 9 °C 1000.7 hPa ESE 6.4 km/h 8 km/h 93% 1.5 mm 116 W/m2
10:55 10.2 °C 9.1 °C 1000.7 hPa North 3.2 km/h 6.4 km/h 93% 1.5 mm 135 W/m2
11:00 10.3 °C 9.2 °C 1001.0 hPa West 3.2 km/h 6.4 km/h 93% 1.5 mm 100 W/m2
11:05 10.3 °C 9.2 °C 1001.0 hPa North 1.4 km/h 4.8 km/h 93% 1.5 mm 107 W/m2
11:10 10.3 °C 9.2 °C 1001.0 hPa ENE 1.4 km/h 6.4 km/h 93% 1.3 mm 114 W/m2
11:15 10.4 °C 9.3 °C 1001.0 hPa NNE 4.7 km/h 6.4 km/h 93% 1.3 mm 90 W/m2
11:20 10.4 °C 9.3 °C 1001.0 hPa NW 3.2 km/h 9.7 km/h 93% 1.3 mm 60 W/m2
11:25 10.4 °C 9.3 °C 1001.0 hPa North 3.2 km/h 6.4 km/h 93% 1.0 mm 67 W/m2
11:30 10.4 °C 9.3 °C 1001.0 hPa NW 4.7 km/h 4.8 km/h 93% 1.0 mm 70 W/m2
11:35 10.4 °C 9.3 °C 1001.0 hPa Calm   4.8 km/h 93% 1.0 mm 51 W/m2
11:40 10.4 °C 9.3 °C 1001.0 hPa ENE 3.2 km/h 8 km/h 93% 1.0 mm 86 W/m2
11:45 10.4 °C 9.3 °C 1001.4 hPa SE 1.4 km/h 11.3 km/h 93% 1.3 mm 116 W/m2
11:50 10.4 °C 9.3 °C 1001.0 hPa ENE 1.4 km/h 4.8 km/h 93% 1.5 mm 130 W/m2
11:55 10.4 °C 9.5 °C 1001.0 hPa Calm   11.3 km/h 94% 1.5 mm 97 W/m2
12:00 10.5 °C 9.6 °C 1001.0 hPa North 3.2 km/h 8 km/h 94% 1.8 mm 155 W/m2
12:05 10.6 °C 9.7 °C 1001.0 hPa Calm   8 km/h 94% 1.8 mm 155 W/m2
12:11 10.6 °C 9.7 °C 1001.4 hPa NNE 3.2 km/h 6.4 km/h 94% 1.8 mm 84 W/m2
12:16 10.7 °C 9.8 °C 1001.4 hPa Calm   6.4 km/h 94% 2.0 mm 123 W/m2
12:21 10.7 °C 9.8 °C 1001.4 hPa North 1.4 km/h 8 km/h 94% 1.8 mm 100 W/m2
12:26 10.7 °C 9.8 °C 1001.4 hPa Calm   11.3 km/h 94% 2.3 mm 183 W/m2
12:31 10.8 °C 9.9 °C 1001.4 hPa NE 1.4 km/h 4.8 km/h 94% 2.0 mm 113 W/m2
12:36 10.8 °C 9.9 °C 1001.4 hPa NW 9.7 km/h 11.3 km/h 94% 2.3 mm 109 W/m2
12:41 10.7 °C 9.6 °C 1001.4 hPa North 1.4 km/h 12.9 km/h 93% 2.0 mm 142 W/m2
12:46 10.8 °C 9.7 °C 1001.4 hPa NNE 1.4 km/h 8 km/h 93% 2.0 mm 114 W/m2
12:51 10.8 °C 9.7 °C 1001.7 hPa NE 4.7 km/h 14.5 km/h 93% 1.8 mm 135 W/m2
12:56 10.8 °C 9.7 °C 1001.7 hPa NW 14.3 km/h 14.5 km/h 93% 1.8 mm 146 W/m2
13:01 10.8 °C 9.7 °C 1001.7 hPa North 4.7 km/h 6.4 km/h 93% 1.8 mm 90 W/m2
13:06 10.8 °C 9.7 °C 1001.7 hPa NNW 14.5 km/h 14.5 km/h 93% 1.8 mm 81 W/m2
13:11 10.7 °C 9.6 °C 1001.7 hPa West 9.7 km/h 16.1 km/h 93% 2.0 mm 69 W/m2
13:16 10.7 °C 9.6 °C 1002.0 hPa NW 7.9 km/h 14.5 km/h 93% 2.0 mm 44 W/m2
13:21 10.7 °C 9.6 °C 1001.7 hPa NNW 7.9 km/h 8 km/h 93% 2.3 mm 37 W/m2
13:26 10.7 °C 9.6 °C 1001.7 hPa NNE 3.2 km/h 11.3 km/h 93% 2.5 mm 51 W/m2
13:31 10.7 °C 9.6 °C 1001.7 hPa NW 6.4 km/h 11.3 km/h 93% 3.0 mm 70 W/m2
13:36 10.7 °C 9.8 °C 1001.7 hPa Calm   4.8 km/h 94% 3.6 mm 93 W/m2
13:41 10.7 °C 9.8 °C 1001.7 hPa North 1.4 km/h 6.4 km/h 94% 3.6 mm 95 W/m2
13:46 10.7 °C 9.8 °C 1001.7 hPa ESE 1.4 km/h 17.7 km/h 94% 3.6 mm 116 W/m2
13:51 10.8 °C 9.9 °C 1001.7 hPa NNW 1.4 km/h 4.8 km/h 94% 3.6 mm 127 W/m2
13:56 10.8 °C 9.9 °C 1001.7 hPa NE 3.2 km/h 8 km/h 94% 3.6 mm 88 W/m2
14:01 10.9 °C 10 °C 1001.7 hPa NE 1.4 km/h 3.2 km/h 94% 3.6 mm 95 W/m2
14:06 10.9 °C 10 °C 1002.0 hPa Calm   4.8 km/h 94% 3.3 mm 93 W/m2
14:11 10.9 °C 10 °C 1002.0 hPa ESE 4.7 km/h 8 km/h 94% 3.3 mm 70 W/m2
14:16 11 °C 10.1 °C 1002.0 hPa NW 1.4 km/h 3.2 km/h 94% 3.3 mm 47 W/m2
14:21 11 °C 10.1 °C 1001.7 hPa NE 3.2 km/h 8 km/h 94% 3.3 mm 62 W/m2
14:26 11 °C 9.9 °C 1002.0 hPa East 7.9 km/h 14.5 km/h 93% 3.3 mm 53 W/m2
14:31 11 °C 10.1 °C 1002.0 hPa NNW 1.4 km/h 6.4 km/h 94% 3.0 mm 102 W/m2
14:36 11.1 °C 10.2 °C 1002.0 hPa NNW 1.4 km/h 9.7 km/h 94% 2.5 mm 54 W/m2
14:41 11.1 °C 10.2 °C 1002.0 hPa West 3.2 km/h 4.8 km/h 94% 2.5 mm 39 W/m2
14:46 11.1 °C 10.2 °C 1002.0 hPa North 3.2 km/h 3.2 km/h 94% 2.8 mm 74 W/m2
14:51 11.1 °C 10.2 °C 1002.0 hPa NNE 4.7 km/h 4.8 km/h 94% 3.0 mm 77 W/m2
14:56 11.1 °C 10.2 °C 1002.0 hPa WNW 1.4 km/h 4.8 km/h 94% 2.8 mm 100 W/m2
15:01 11.2 °C 10.3 °C 1002.0 hPa ESE 1.4 km/h 11.3 km/h 94% 2.8 mm 120 W/m2
15:06 11.3 °C 10.4 °C 1002.0 hPa NNE 3.2 km/h 4.8 km/h 94% 2.8 mm 118 W/m2
15:11 11.3 °C 10.4 °C 1002.0 hPa WNW 11.3 km/h 11.3 km/h 94% 2.8 mm 114 W/m2
15:16 11.4 °C 10.5 °C 1002.0 hPa NNW 1.4 km/h 9.7 km/h 94% 2.5 mm 123 W/m2
15:21 11.4 °C 10.5 °C 1002.0 hPa NNE 11.3 km/h 11.3 km/h 94% 2.3 mm 120 W/m2
15:26 11.4 °C 10.5 °C 1002.0 hPa NNE 3.2 km/h 8 km/h 94% 1.8 mm 93 W/m2
15:31 11.5 °C 10.6 °C 1002.0 hPa WSW 4.7 km/h 8 km/h 94% 1.5 mm 90 W/m2
15:36 11.5 °C 10.6 °C 1002.0 hPa NW 3.2 km/h 4.8 km/h 94% 1.5 mm 70 W/m2
15:42 11.5 °C 10.6 °C 1002.0 hPa NE 1.4 km/h 8 km/h 94% 1.5 mm 62 W/m2
15:47 11.5 °C 10.6 °C 1002.0 hPa Calm   9.7 km/h 94% 1.0 mm 83 W/m2
15:52 11.5 °C 10.6 °C 1002.0 hPa NNW 4.7 km/h 14.5 km/h 94% 0.8 mm 69 W/m2
15:57 11.5 °C 10.6 °C 1002.0 hPa ESE 3.2 km/h 4.8 km/h 94% 1.0 mm 83 W/m2
16:02 11.5 °C 10.6 °C 1002.0 hPa Calm   4.8 km/h 94% 1.0 mm 72 W/m2
16:07 11.6 °C 10.7 °C 1002.0 hPa ENE 3.2 km/h 8 km/h 94% 1.0 mm 62 W/m2
16:12 11.6 °C 10.7 °C 1002.0 hPa NNW 4.7 km/h 9.7 km/h 94% 1.3 mm 77 W/m2
16:17 11.6 °C 10.7 °C 1002.0 hPa NNE 7.9 km/h 9.7 km/h 94% 1.5 mm 67 W/m2
16:22 11.6 °C 10.7 °C 1002.0 hPa NNE 4.7 km/h 4.8 km/h 94% 1.5 mm 81 W/m2
16:27 11.6 °C 10.8 °C 1002.0 hPa ENE 3.2 km/h 9.7 km/h 95% 1.5 mm 81 W/m2
16:32 11.6 °C 10.8 °C 1002.0 hPa WNW 1.4 km/h 9.7 km/h 95% 1.5 mm 76 W/m2
16:37 11.6 °C 10.7 °C 1002.0 hPa NE 3.2 km/h 4.8 km/h 94% 1.3 mm 81 W/m2
16:42 11.7 °C 10.8 °C 1002.0 hPa WNW 4.7 km/h 12.9 km/h 94% 1.3 mm 63 W/m2
16:47 11.7 °C 10.8 °C 1002.0 hPa North 3.2 km/h 6.4 km/h 94% 1.3 mm 58 W/m2
16:52 11.7 °C 10.8 °C 1002.4 hPa North 3.2 km/h 12.9 km/h 94% 1.5 mm 74 W/m2
16:57 11.7 °C 10.8 °C 1002.4 hPa NNW 4.7 km/h 4.8 km/h 94% 1.3 mm 88 W/m2
17:02 11.7 °C 10.8 °C 1002.4 hPa East 4.7 km/h 9.7 km/h 94% 1.0 mm 56 W/m2
17:07 11.7 °C 10.8 °C 1002.4 hPa East 9.7 km/h 14.5 km/h 94% 1.0 mm 69 W/m2
17:12 11.8 °C 10.9 °C 1002.4 hPa WNW 1.4 km/h 4.8 km/h 94% 0.5 mm 72 W/m2
17:17 11.8 °C 10.9 °C 1002.4 hPa Calm   4.8 km/h 94% 0.5 mm 44 W/m2
17:22 11.8 °C 10.9 °C 1002.4 hPa NNE 1.4 km/h 8 km/h 94% 0.5 mm 47 W/m2
17:27 11.8 °C 10.9 °C 1002.4 hPa NNW 7.9 km/h 8 km/h 94% 0.5 mm 35 W/m2
17:32 11.8 °C 10.9 °C 1002.4 hPa NNW 1.4 km/h 6.4 km/h 94% 0.5 mm 49 W/m2
17:37 11.8 °C 10.9 °C 1002.7 hPa North 3.2 km/h 4.8 km/h 94% 0.5 mm 40 W/m2
17:42 11.8 °C 10.9 °C 1002.7 hPa Calm   9.7 km/h 94% 0.5 mm 46 W/m2
17:47 11.8 °C 10.9 °C 1002.7 hPa SW 4.7 km/h 11.3 km/h 94% 0.5 mm 58 W/m2
17:52 11.9 °C 11 °C 1002.7 hPa NNW 4.7 km/h 11.3 km/h 94% 0.5 mm 37 W/m2
17:57 11.9 °C 11 °C 1003.0 hPa Calm   6.4 km/h 94% 0.5 mm 44 W/m2
18:02 11.9 °C 11 °C 1002.7 hPa NW 3.2 km/h 4.8 km/h 94% 0.5 mm 84 W/m2
18:07 11.9 °C 11 °C 1003.0 hPa Calm   4.8 km/h 94% 0.5 mm 33 W/m2
18:12 11.9 °C 11 °C 1003.0 hPa Calm   1.6 km/h 94% 0.5 mm 12 W/m2
18:18 11.8 °C 10.9 °C 1003.0 hPa Calm   1.6 km/h 94% 0.5 mm 7 W/m2
18:23 11.8 °C 10.9 °C 1002.7 hPa NW 4.7 km/h 4.8 km/h 94% 0.5 mm 7 W/m2
18:33 11.8 °C 11 °C 1003.0 hPa WNW 6.4 km/h 6.4 km/h 95% 0.5 mm 5 W/m2
18:38 11.8 °C 11 °C 1003.0 hPa NNW 3.2 km/h 4.8 km/h 95% 0.5 mm 12 W/m2
18:43 11.8 °C 11 °C 1003.0 hPa Calm   4.8 km/h 95% 0.8 mm 0 W/m2
18:48 11.8 °C 11 °C 1003.0 hPa NNE 1.4 km/h 8 km/h 95% 0.8 mm 0 W/m2
18:53 11.8 °C 11 °C 1003.0 hPa East 3.2 km/h 4.8 km/h 95% 0.8 mm 0 W/m2
18:58 11.8 °C 11 °C 1003.0 hPa Calm   9.7 km/h 95% 0.8 mm 0 W/m2
19:03 11.8 °C 11 °C 1003.0 hPa NNW 4.7 km/h 8 km/h 95% 1.0 mm 0 W/m2
19:08 11.8 °C 11 °C 1003.0 hPa WNW 1.4 km/h 11.3 km/h 95% 0.8 mm 0 W/m2
19:13 11.8 °C 11 °C 1003.4 hPa ENE 3.2 km/h 4.8 km/h 95% 0.8 mm 0 W/m2
19:18 11.8 °C 11 °C 1003.0 hPa WSW 1.4 km/h 11.3 km/h 95% 0.8 mm 0 W/m2
19:23 11.8 °C 11 °C 1003.0 hPa WNW 1.4 km/h 6.4 km/h 95% 0.8 mm 0 W/m2
19:28 11.8 °C 11 °C 1003.4 hPa WNW 4.7 km/h 9.7 km/h 95% 0.8 mm 0 W/m2
19:33 11.9 °C 11 °C 1003.4 hPa WNW 7.9 km/h 9.7 km/h 94% 0.5 mm 0 W/m2
19:38 11.9 °C 11 °C 1003.4 hPa WSW 1.4 km/h 11.3 km/h 94% 0.5 mm 0 W/m2
19:43 11.9 °C 11 °C 1003.4 hPa NW 1.4 km/h 4.8 km/h 94% 0.2 mm 0 W/m2
19:48 11.9 °C 11 °C 1003.4 hPa Calm   8 km/h 94% 0.2 mm 0 W/m2
19:53 11.9 °C 11 °C 1003.4 hPa ESE 4.7 km/h 4.8 km/h 94% 0.2 mm 0 W/m2
19:58 11.9 °C 11 °C 1003.4 hPa Calm   11.3 km/h 94% 0.2 mm 0 W/m2
20:03 11.9 °C 11 °C 1003.4 hPa NNE 3.2 km/h 6.4 km/h 94% 0.2 mm 0 W/m2
20:08 11.9 °C 11 °C 1003.4 hPa WNW 4.7 km/h 14.5 km/h 94% 0.2 mm 0 W/m2
20:13 11.9 °C 11 °C 1003.4 hPa West 9.7 km/h 9.7 km/h 94% 0.5 mm 0 W/m2
20:18 11.9 °C 11 °C 1003.7 hPa West 6.4 km/h 14.5 km/h 94% 0.5 mm 0 W/m2
20:23 12 °C 11.1 °C 1003.7 hPa North 1.4 km/h 16.1 km/h 94% 0.5 mm 0 W/m2
20:28 12.1 °C 11.2 °C 1003.4 hPa NW 1.4 km/h 6.4 km/h 94% 0.5 mm 0 W/m2
20:33 12.1 °C 11.2 °C 1003.7 hPa Calm   12.9 km/h 94% 0.5 mm 0 W/m2
20:38 12.1 °C 11.2 °C 1003.4 hPa WNW 3.2 km/h 6.4 km/h 94% 0.5 mm 0 W/m2
20:43 12.1 °C 11.2 °C 1003.7 hPa NW 1.4 km/h 3.2 km/h 94% 0.5 mm 0 W/m2
20:48 12.1 °C 11.2 °C 1003.7 hPa SSE 1.4 km/h 11.3 km/h 94% 0.8 mm 0 W/m2
20:53 12.1 °C 11.2 °C 1003.7 hPa NNW 4.7 km/h 11.3 km/h 94% 1.0 mm 0 W/m2
20:58 12.1 °C 11.2 °C 1003.7 hPa NNW 3.2 km/h 4.8 km/h 94% 1.0 mm 0 W/m2
21:03 12 °C 11.1 °C 1003.7 hPa WSW 1.4 km/h 3.2 km/h 94% 1.0 mm 0 W/m2
21:08 12 °C 11.1 °C 1003.7 hPa NE 4.7 km/h 8 km/h 94% 1.3 mm 0 W/m2
21:13 12 °C 11.1 °C 1003.7 hPa SW 3.2 km/h 9.7 km/h 94% 1.0 mm 0 W/m2
21:18 12 °C 11.1 °C 1003.7 hPa North 1.4 km/h 4.8 km/h 94% 1.3 mm 0 W/m2
21:23 11.9 °C 11 °C 1003.7 hPa North 1.4 km/h 6.4 km/h 94% 1.5 mm 0 W/m2
21:28 11.9 °C 11 °C 1003.7 hPa NNW 3.2 km/h 3.2 km/h 94% 1.5 mm 0 W/m2
21:33 11.9 °C 11 °C 1003.7 hPa WNW 3.2 km/h 3.2 km/h 94% 1.5 mm 0 W/m2
21:38 11.9 °C 11 °C 1003.7 hPa East 1.4 km/h 4.8 km/h 94% 1.8 mm 0 W/m2
21:43 11.9 °C 11 °C 1003.7 hPa NE 4.7 km/h 8 km/h 94% 2.3 mm 0 W/m2
21:48 11.9 °C 11.1 °C 1003.7 hPa NE 3.2 km/h 4.8 km/h 95% 2.3 mm 0 W/m2
21:53 11.9 °C 11.1 °C 1003.4 hPa North 4.7 km/h 8 km/h 95% 2.3 mm 0 W/m2
21:58 11.8 °C 11 °C 1003.4 hPa NNE 1.4 km/h 4.8 km/h 95% 2.3 mm 0 W/m2
22:04 11.8 °C 11 °C 1003.4 hPa NNW 4.7 km/h 6.4 km/h 95% 2.8 mm 0 W/m2
22:09 11.8 °C 11 °C 1003.4 hPa NNE 3.2 km/h 8 km/h 95% 2.5 mm 0 W/m2
22:14 11.8 °C 11 °C 1003.4 hPa NNW 4.7 km/h 4.8 km/h 95% 2.8 mm 0 W/m2
22:19 11.8 °C 11 °C 1003.4 hPa ENE 1.4 km/h 6.4 km/h 95% 2.8 mm 0 W/m2
22:24 11.9 °C 11.1 °C 1003.4 hPa NNW 4.7 km/h 12.9 km/h 95% 2.5 mm 0 W/m2
22:29 11.9 °C 11.1 °C 1003.4 hPa NW 1.4 km/h 4.8 km/h 95% 2.5 mm 0 W/m2
22:34 11.9 °C 11.1 °C 1003.4 hPa NNE 1.4 km/h 12.9 km/h 95% 2.5 mm 0 W/m2
22:39 11.9 °C 11.1 °C 1003.4 hPa NNW 1.4 km/h 3.2 km/h 95% 2.5 mm 0 W/m2
22:44 11.9 °C 11.1 °C 1003.4 hPa NW 1.4 km/h 3.2 km/h 95% 2.5 mm 0 W/m2
22:49 11.9 °C 11.1 °C 1003.4 hPa SE 1.4 km/h 3.2 km/h 95% 2.8 mm 0 W/m2
22:54 11.8 °C 11 °C 1003.4 hPa SE 3.2 km/h 4.8 km/h 95% 2.5 mm 0 W/m2
22:59 11.8 °C 11 °C 1003.4 hPa Calm   3.2 km/h 95% 2.5 mm 0 W/m2
23:04 11.7 °C 10.9 °C 1003.4 hPa NE 1.4 km/h 4.8 km/h 95% 2.3 mm 0 W/m2
23:09 11.7 °C 10.9 °C 1003.4 hPa NE 1.4 km/h 6.4 km/h 95% 2.3 mm 0 W/m2
23:14 11.7 °C 10.9 °C 1003.4 hPa NNW 1.4 km/h 4.8 km/h 95% 2.3 mm 0 W/m2
23:19 11.7 °C 10.9 °C 1003.4 hPa NW 6.4 km/h 11.3 km/h 95% 2.3 mm 0 W/m2
23:24 11.8 °C 11 °C 1003.4 hPa North 3.2 km/h 11.3 km/h 95% 2.5 mm 0 W/m2
23:29 11.9 °C 11.1 °C 1003.4 hPa WSW 7.9 km/h 11.3 km/h 95% 2.5 mm 0 W/m2
23:34 11.9 °C 11.1 °C 1003.4 hPa WNW 6.4 km/h 12.9 km/h 95% 2.3 mm 0 W/m2
23:39 12 °C 11.2 °C 1003.7 hPa West 6.4 km/h 12.9 km/h 95% 2.3 mm 0 W/m2
23:44 12.1 °C 11.3 °C 1003.7 hPa WNW 3.2 km/h 12.9 km/h 95% 2.3 mm 0 W/m2
23:49 12.1 °C 11.3 °C 1003.4 hPa West 3.2 km/h 12.9 km/h 95% 2.3 mm 0 W/m2
23:54 12.1 °C 11.3 °C 1003.4 hPa WNW 6.4 km/h 17.7 km/h 95% 2.3 mm 0 W/m2
23:59 12.1 °C 11.3 °C 1003.7 hPa WNW 7.9 km/h 17.7 km/h 95% 2.0 mm 0 W/m2
Juneau County Weather
Compliments of Weather Underground - 4 mb